Regional Weather Roundup
Issued by NWS

Home | Current Version | Previous Version | Graphics & Text | Print | Product List | Glossary Off
Versions: 1 2 3 4 5 6 7 8 9 10 11 12 13 14 15 16 17 18 19 20 21 22 23 24 25 26 27 28 29 30 31 32 33 34 35 36 37 38 39 40 41 42 43 44 45 46 47 48 49 50

000
ASUS43 KDMX 280707
RWRIA

WEATHER ROUNDUP FOR IOWA
NATIONAL WEATHER SERVICE DES MOINES IA
100 AM CST SAT FEB 28 2015

NOTE: "FAIR" INDICATES FEW OR NO CLOUDS BELOW 12,000 FEET WITH NO
SIGNIFICANT WEATHER AND/OR OBSTRUCTIONS TO VISIBILITY.

* - THESE STATIONS ARE NOT NWS STATIONS...THUS NOT UNDER NWS
QUALITY CONTROL.  THEY ALSO DO NOT REPORT WEATHER SUCH
AS PRECIPITATION OR FOG.

IAZ001>003-012>014-020>022-031>034-043>046-280800-
   NORTHWEST IOWA

CITY           SKY/WX    TMP DP  RH WIND       PRES   REMARKS
CARROLL *      CLEAR     -2  -8  78 SE5       30.52S WCI -12
CHEROKEE *     PTCLDY    -2  -6  84 S3        30.48F
DENISON *      CLEAR      3  -4  72 CALM      30.47F
LE MARS *      CLEAR      3  -2  78 S6        30.48S WCI  -8
ORANGE CITY *  CLEAR      3  -2  78 CALM      30.44S
SHELDON *      CLEAR     -2  -8  78 S8        30.44F WCI -17
SIOUX CITY     CLEAR      3  -2  79 SE9       30.48F WCI -12
SPENCER        PTCLDY    -1  -7  75 S10       30.47F WCI -17
STORM LAKE *   CLEAR     -2  -8  78 S10       30.47F WCI -19
$$

IAZ055>058-069>071-079>083-090>094-280800-
   SOUTHWEST IOWA

CITY           SKY/WX    TMP DP  RH WIND       PRES   REMARKS
ATLANTIC *     CLEAR      0  -6  78 N3        30.52S
AUDUBON *      CLEAR     -8 -13  77 CALM      30.50F
CLARINDA *     CLEAR      9   3  78 CALM      30.55F
COUNCIL BLFS * CLEAR      7   0  72 SE6       30.48S WCI  -3
CRESTON *      CLEAR      3  -4  72 SE7       30.53S WCI  -9
HARLAN  *      CLEAR      1   0  92 CALM      30.54F
LAMONI         PTCLDY     6  -2  69 E6        30.54F WCI  -4
RED OAK *      CLEAR      9   1  72 VRB5      30.53S WCI   0
SHENANDOAH *   MOCLDY     9   1  72 SE7       30.54S WCI  -3
$$

IAZ047>049-059>061-072>074-084-280800-
   CENTRAL IOWA

CITY           SKY/WX    TMP DP  RH WIND       PRES   REMARKS
AMES           CLEAR     -4  -8  83 CALM      30.58S
ANKENY *       CLEAR      0  -6  78 CALM      30.59F
CHARITON *     CLEAR      1  -4  78 SE6       30.57S WCI -10
DES MOINES     CLEAR      5  -3  69 SE6       30.58S WCI  -6
GRINNELL*      MOCLDY    -4  -8  84 E5        30.59S WCI -15
KNOXVILLE *    CLEAR      1  -6  71 SE8       30.58S WCI -12
MARSHALLTOWN   PTCLDY    -9 -12  87 SE7       30.58F WCI -24
PELLA *          N/A     -2  -6  84 SE5       30.61S WCI -12
PERRY *          N/A     -2  -4  92 E7        30.56S WCI -16
$$

IAZ004>006-015-016-023>025-035-036-280800-
   NORTH CENTRAL IOWA

CITY           SKY/WX    TMP DP  RH WIND       PRES   REMARKS
ALGONA *       CLEAR     -2  -6  84 SE12      30.52F WCI -20
CLARION *      CLEAR     -8 -13  77 SE10      30.55S WCI -26
ESTHERVILLE    PTCLDY    -8 -11  86 S9        30.48F WCI -25
FORT DODGE *   PTCLDY     0  -6  78 SE3       30.54F
MASON CITY     PTCLDY   -11 -15  82 S6        30.55F WCI -25
FOREST CITY *  CLEAR    -11 -18  70 SE5       30.53S WCI -23
IOWA FALLS *     N/A     -9 -15  77 SE3       30.57S
$$

IAZ007>011-017>019-026>030-037>042-050>054-066-280800-
   NORTHEAST IOWA

CITY           SKY/WX    TMP DP  RH WIND       PRES   REMARKS
CEDAR RAPIDS   PTCLDY    -7 -11  83 SE3       30.61F
CHARLES CITY * CLEAR     -6  -9  84 S7        30.58S WCI -20
CLINTON *      MOCLDY   -11 -20  64 CALM      30.66S
DECORAH *      CLEAR     -6 -11  77 S6        30.57S WCI -18
DUBUQUE        PTCLDY   -10 -14  82 CALM      30.60S
MONTICELLO *   CLEAR    -18 -26  69 CALM      30.64S
OELWEIN *      CLEAR     -9 -15  77 S5        30.59S WCI -21
WATERLOO       MOCLDY   -19 -22  86 E3        30.60F
$$

IAZ064-065-067-068-078-280800-
   EAST CENTRAL IOWA

CITY           SKY/WX    TMP DP  RH WIND       PRES   REMARKS
DAVENPORT      PTCLDY    -4 -10  75 CALM      30.65S
IOWA CITY      PTCLDY    -9 -13  83 CALM      30.66S
MT. PLEASANT * PTCLDY    -4  -8  84 E7        30.63S WCI -18
MUSCATINE *    CLEAR    -13 -17  84 CALM      30.68S
QUAD CITIES    PTCLDY   -14 -21  71 CALM      30.67S
$$

IAZ062-063-075>077-085>089-095>099-280800-
   SOUTHEAST IOWA

CITY           SKY/WX    TMP DP  RH WIND       PRES   REMARKS
BURLINGTON     MOCLDY    -1  -5  82 NE3       30.64S
FAIRFIELD *    CLEAR     -6 -13  71 SE3       30.62S
FORT MADISON * CLEAR     -2  -8  78 CALM      30.64S
KEOKUK *       CLOUDY     3  -4  72 E5        30.63S WCI  -6
OSKALOOSA *      N/A     -2  -8  78 SE6       30.61S WCI -14
CENTERVILLE *    N/A      3  -2  78 E5        30.59S WCI  -6
OTTUMWA        PTCLDY    -3  -9  75 SE7       30.60F WCI -16
WASHINGTON *   CLEAR     -8  -9  92 E5        30.63F WCI -19
$$

ABBREVIATIONS USED IN REMARKS
   TC - TEMPERATURES IN CELSIUS
  WCI - WIND CHILL INDEX
   HX - HEAT INDEX
  VSB - VISIBILITY
$$




USA.gov is the U.S. government's official web portal to all federal, state and local government web resources and services.